Date,Time,Wetness (Wet Dry or Ice),Wind Speed (m/s),Temperature (C),Humidity (%),Pressure (mb),Radiation (W/m^2)
2019-05-13,01:05:00,DRY,1.85,11.95,21.0,774.00,1.9
2019-05-13,01:10:00,DRY,1.17,11.63,21.0,773.67,1.6
2019-05-13,01:15:00,DRY,1.70,11.40,21.0,773.50,1.1
2019-05-13,01:20:00,DRY,1.53,11.63,21.0,773.67,1.4
2019-05-13,01:25:00,DRY,1.25,11.70,20.0,773.50,0.7
2019-05-13,01:30:00,DRY,1.80,11.77,20.3,773.00,1.4
2019-05-13,01:35:00,DRY,2.45,11.60,20.5,773.00,1.8
2019-05-13,01:40:00,DRY,2.23,11.83,20.0,773.00,0.8
2019-05-13,01:45:00,DRY,1.75,11.85,21.0,773.00,0.2
2019-05-13,01:50:00,DRY,1.70,11.63,21.0,773.00,1.6
2019-05-13,01:55:00,DRY,1.85,11.65,21.0,773.00,1.2
2019-05-13,02:00:00,DRY,1.20,11.57,21.0,773.00,1.1
2019-05-13,02:05:00,DRY,1.70,11.45,21.0,773.00,0.8
2019-05-13,02:10:00,DRY,1.37,11.63,21.0,773.00,1.4
2019-05-13,02:15:00,DRY,1.15,11.80,20.5,773.00,0.9
2019-05-13,02:20:00,DRY,2.37,11.87,20.0,773.00,2.0
2019-05-13,02:25:00,DRY,1.35,11.80,20.0,773.00,0.8
2019-05-13,02:30:00,DRY,1.87,11.83,20.0,773.00,1.7
2019-05-13,02:35:00,DRY,1.55,11.90,20.0,773.00,1.2
2019-05-13,02:40:00,DRY,3.13,12.07,19.3,773.00,1.0
2019-05-13,02:45:00,DRY,2.70,12.10,19.5,773.00,0.8
2019-05-13,02:50:00,DRY,3.10,12.13,19.3,773.00,1.3
2019-05-13,02:55:00,DRY,1.95,12.25,19.5,773.00,1.7
2019-05-13,03:00:00,DRY,2.70,12.07,20.0,773.00,0.8
2019-05-13,03:05:00,DRY,2.30,12.05,20.0,773.00,1.7
2019-05-13,03:10:00,DRY,2.60,12.03,20.0,773.00,1.0
2019-05-13,03:15:00,DRY,2.90,11.95,20.0,773.00,1.6
2019-05-13,03:20:00,DRY,2.03,12.00,20.0,773.00,1.7
2019-05-13,03:25:00,DRY,2.55,12.05,19.5,773.00,0.8
2019-05-13,03:30:00,DRY,2.27,12.07,19.0,773.00,0.9
2019-05-13,03:35:00,DRY,1.70,11.90,19.5,773.00,1.6
2019-05-13,03:40:00,DRY,2.07,11.83,20.0,773.00,1.1
2019-05-13,03:45:00,DRY,2.35,11.85,20.0,773.00,1.6
2019-05-13,03:50:00,DRY,3.70,11.80,20.0,773.00,1.6
2019-05-13,03:55:00,DRY,4.45,11.95,19.0,772.50,1.2
2019-05-13,04:00:00,DRY,3.80,12.03,18.3,772.33,1.2
2019-05-13,04:05:00,DRY,4.45,11.95,18.5,773.00,0.7
2019-05-13,04:10:00,DRY,4.40,12.07,18.3,773.00,1.9
2019-05-13,04:15:00,DRY,3.60,12.05,19.0,773.00,1.1
2019-05-13,04:20:00,DRY,4.57,12.10,19.0,773.00,1.3
2019-05-13,04:25:00,DRY,4.55,12.10,18.5,773.00,1.4
2019-05-13,04:30:00,DRY,4.50,12.13,17.7,773.00,1.1
2019-05-13,04:35:00,DRY,4.60,12.15,18.0,773.00,1.2
2019-05-13,04:40:00,DRY,3.93,12.17,17.0,773.00,1.1
2019-05-13,04:45:00,DRY,4.50,12.20,17.0,773.00,1.4
2019-05-13,04:50:00,DRY,3.97,12.20,16.7,773.00,1.1
2019-05-13,04:55:00,DRY,4.00,12.25,15.5,773.00,1.1
2019-05-13,05:00:00,DRY,3.87,12.30,15.3,773.00,1.2
2019-05-13,05:05:00,DRY,3.00,12.25,16.0,773.00,1.1
2019-05-13,05:10:00,DRY,3.03,12.07,17.0,773.00,0.8
2019-05-13,05:15:00,DRY,3.90,12.20,17.0,773.00,1.5
2019-05-13,05:20:00,DRY,3.17,12.13,16.3,773.00,0.8
2019-05-13,05:25:00,DRY,3.05,12.15,17.0,773.00,1.0
2019-05-13,05:30:00,DRY,2.80,12.07,17.0,773.00,1.4
2019-05-13,05:35:00,DRY,3.00,12.30,16.0,773.00,1.4
2019-05-13,05:40:00,DRY,3.03,12.13,16.0,773.00,1.5
2019-05-13,05:45:00,DRY,3.40,12.10,16.5,773.00,1.6
2019-05-13,05:50:00,DRY,3.23,11.97,17.0,773.00,1.4
2019-05-13,05:55:00,DRY,2.85,11.95,17.0,773.00,1.8
2019-05-13,06:00:00,DRY,4.00,12.10,17.0,773.00,1.3
2019-05-13,06:05:00,DRY,4.30,12.05,17.0,773.00,1.6
2019-05-13,06:10:00,DRY,3.53,12.07,15.7,773.00,2.8
2019-05-13,06:15:00,DRY,3.85,12.05,15.5,773.00,3.5
2019-05-13,06:20:00,DRY,3.37,12.13,16.0,773.00,5.7
2019-05-13,06:25:00,DRY,3.80,12.15,15.0,773.00,11.8
2019-05-13,06:30:00,DRY,3.67,12.37,14.7,773.00,24.3
2019-05-13,06:35:00,DRY,3.60,12.20,15.0,773.00,42.7
2019-05-13,06:40:00,DRY,3.43,12.40,15.0,773.00,62.3
2019-05-13,06:45:00,DRY,4.30,12.40,15.0,773.00,88.9
2019-05-13,06:50:00,DRY,3.63,12.40,15.7,773.00,106.6
2019-05-13,06:55:00,DRY,3.45,12.50,15.0,773.00,124.8
2019-05-13,07:00:00,DRY,3.90,12.67,14.0,773.00,143.8
2019-05-13,07:05:00,DRY,3.95,12.75,14.5,773.00,163.4
2019-05-13,07:10:00,DRY,3.80,12.77,14.3,773.00,184.1
2019-05-13,07:15:00,DRY,4.10,12.90,14.0,773.00,204.6
2019-05-13,07:20:00,DRY,3.67,12.97,14.0,773.00,225.2
2019-05-13,07:25:00,DRY,4.15,13.05,14.0,773.00,246.9
2019-05-13,07:30:00,DRY,3.20,13.33,12.7,773.00,268.3
2019-05-13,07:35:00,DRY,3.50,13.40,12.5,773.00,290.6
2019-05-13,07:40:00,DRY,3.27,13.57,12.0,773.00,312.2
2019-05-13,07:45:00,DRY,3.00,13.60,13.0,773.00,333.4
2019-05-13,07:50:00,DRY,2.77,13.73,12.7,773.00,355.2
2019-05-13,07:55:00,DRY,2.35,13.70,12.5,773.00,377.1
2019-05-13,08:00:00,DRY,1.80,14.03,12.3,773.00,398.0
2019-05-13,08:05:00,DRY,1.60,14.35,12.5,773.00,419.6
2019-05-13,08:10:00,DRY,1.97,14.37,12.7,773.00,441.3
2019-05-13,08:15:00,DRY,3.00,14.30,12.0,773.00,457.8
2019-05-13,08:20:00,DRY,1.47,14.60,13.0,773.00,483.7
2019-05-13,08:25:00,DRY,1.70,14.45,13.5,773.00,504.1
2019-05-13,08:30:00,DRY,2.03,14.63,12.7,773.00,524.7
2019-05-13,08:35:00,DRY,1.10,14.75,13.0,773.00,545.0
2019-05-13,08:40:00,DRY,2.80,14.80,13.7,773.00,564.3
2019-05-13,08:45:00,DRY,1.95,14.70,13.0,773.00,584.5
2019-05-13,08:50:00,DRY,2.83,14.70,14.7,773.00,603.1
2019-05-13,08:55:00,DRY,4.00,14.55,14.5,773.00,623.4
2019-05-13,09:00:00,DRY,2.97,14.57,15.0,773.00,643.2
2019-05-13,09:05:00,DRY,2.35,14.85,15.0,773.00,661.9
2019-05-13,09:10:00,DRY,2.70,14.77,15.3,773.00,679.7
2019-05-13,09:15:00,DRY,3.00,14.75,15.0,773.00,699.0
2019-05-13,09:20:00,DRY,3.83,14.63,15.0,773.00,715.9
2019-05-13,09:25:00,DRY,1.85,14.65,14.5,773.00,733.9
2019-05-13,09:30:00,DRY,2.57,15.07,14.0,773.00,750.8
2019-05-13,09:35:00,DRY,2.00,15.20,14.0,773.00,768.1
2019-05-13,09:40:00,DRY,3.07,15.30,11.7,773.00,784.7
2019-05-13,09:45:00,DRY,1.40,15.20,13.0,773.00,801.1
2019-05-13,09:50:00,DRY,2.43,15.13,12.0,773.00,818.5
2019-05-13,09:55:00,DRY,0.85,15.80,15.5,773.00,835.5
2019-05-13,10:00:00,DRY,1.57,16.37,13.3,773.00,851.1
2019-05-13,10:05:00,DRY,2.65,15.95,12.0,773.00,864.2
2019-05-13,10:10:00,DRY,1.10,15.70,11.3,773.00,881.4
2019-05-13,10:15:00,DRY,1.15,16.25,12.5,773.00,894.9
2019-05-13,10:20:00,DRY,2.43,15.97,12.3,773.00,909.6
2019-05-13,10:25:00,DRY,1.20,15.60,13.0,773.00,921.2
2019-05-13,10:30:00,DRY,1.60,15.90,12.0,773.00,933.7
2019-05-13,10:35:00,DRY,1.30,16.15,12.0,773.00,945.9
2019-05-13,10:40:00,DRY,1.20,16.33,13.7,773.00,959.4
2019-05-13,10:45:00,DRY,1.00,16.20,13.0,773.00,974.0
2019-05-13,10:50:00,DRY,2.03,16.00,13.0,773.00,983.8
2019-05-13,10:55:00,DRY,1.15,15.75,11.5,773.00,995.5
2019-05-13,11:00:00,DRY,1.17,15.97,11.0,773.00,1005.1
2019-05-13,11:05:00,DRY,1.50,16.30,14.5,773.00,1016.5
2019-05-13,11:10:00,DRY,1.50,16.47,12.3,773.00,1026.5
2019-05-13,11:15:00,DRY,1.65,16.40,13.0,773.00,1033.4
2019-05-13,11:20:00,DRY,3.13,16.23,12.7,773.00,1045.1
2019-05-13,11:25:00,DRY,1.65,15.90,13.0,773.00,1053.7
2019-05-13,11:30:00,DRY,2.10,16.30,16.0,773.00,1059.9
2019-05-13,11:35:00,DRY,1.40,16.95,15.0,773.00,1069.7
2019-05-13,11:40:00,DRY,1.27,17.10,18.3,773.33,1077.8
2019-05-13,11:45:00,DRY,2.50,17.25,20.5,773.00,1082.2
2019-05-13,11:50:00,DRY,1.50,16.53,21.3,773.00,1088.9
2019-05-13,11:55:00,DRY,3.10,17.10,19.5,773.00,1094.5
2019-05-13,12:00:00,DRY,1.60,17.27,18.7,773.00,1099.3
2019-05-13,12:05:00,DRY,1.15,16.45,20.5,773.00,1103.7
2019-05-13,12:10:00,DRY,1.20,16.30,23.0,773.00,1109.5
2019-05-13,12:15:00,DRY,1.20,16.10,22.0,773.00,1115.5
2019-05-13,12:20:00,DRY,1.13,17.07,19.7,773.00,1119.7
2019-05-13,12:25:00,DRY,1.85,17.20,20.5,773.00,1121.1
2019-05-13,12:30:00,DRY,1.77,16.80,20.3,773.00,1123.6
2019-05-13,12:35:00,DRY,1.25,16.50,22.0,773.00,1125.5
2019-05-13,12:40:00,DRY,1.67,16.43,21.3,773.00,1126.7
2019-05-13,12:45:00,DRY,1.75,16.70,21.0,773.00,1128.2
2019-05-13,12:50:00,DRY,1.07,17.13,20.0,773.00,1129.8
2019-05-13,12:55:00,DRY,1.25,16.85,20.0,773.00,1131.0
2019-05-13,13:00:00,DRY,2.27,16.63,21.3,773.00,1131.7
2019-05-13,13:05:00,DRY,3.00,16.60,21.5,773.00,1130.1
2019-05-13,13:10:00,DRY,3.30,16.40,21.0,773.00,1132.3
2019-05-13,13:15:00,DRY,2.40,16.00,21.0,773.00,1131.6
2019-05-13,13:20:00,DRY,2.13,16.47,20.7,773.00,1132.5
2019-05-13,13:25:00,DRY,1.35,16.05,22.0,773.00,1131.9
2019-05-13,13:30:00,DRY,0.60,16.30,22.0,773.00,1128.6
2019-05-13,13:35:00,DRY,0.70,16.20,22.0,773.00,1126.6
2019-05-13,13:40:00,DRY,2.17,16.60,22.0,773.00,1122.2
2019-05-13,13:45:00,DRY,2.35,16.75,20.5,773.00,1119.7
2019-05-13,13:50:00,DRY,2.37,16.33,22.0,773.00,1116.9
2019-05-13,13:55:00,DRY,1.45,16.30,22.5,773.00,1114.9
2019-05-13,14:00:00,DRY,1.83,17.20,21.3,773.00,1108.6
2019-05-13,14:05:00,DRY,1.50,16.30,23.5,773.00,1104.0
2019-05-13,14:10:00,DRY,1.73,16.43,21.7,773.00,1098.9
2019-05-13,14:15:00,DRY,2.05,16.70,21.5,773.00,1092.7
2019-05-13,14:20:00,DRY,1.87,15.97,21.0,773.00,1086.2
2019-05-13,14:25:00,DRY,1.85,16.25,22.5,773.00,1077.9
2019-05-13,14:30:00,DRY,2.15,16.60,21.0,773.00,1073.7
2019-05-13,14:35:00,DRY,1.85,16.30,20.5,773.00,1065.0
2019-05-13,14:40:00,DRY,2.70,16.53,21.7,773.00,1054.2
2019-05-13,14:45:00,DRY,2.10,16.15,21.0,773.00,1047.6
2019-05-13,14:50:00,DRY,1.53,16.50,20.3,773.00,1040.5
2019-05-13,14:55:00,DRY,1.75,16.60,20.0,773.00,1033.0
2019-05-13,15:00:00,DRY,1.37,16.53,23.3,773.00,1018.1
2019-05-13,15:05:00,DRY,2.80,16.60,22.0,773.00,1010.3
2019-05-13,15:10:00,DRY,1.77,15.80,21.3,773.00,1000.4
2019-05-13,15:15:00,DRY,1.80,15.85,23.5,773.00,987.2
2019-05-13,15:20:00,DRY,1.17,16.63,22.7,773.00,974.7
2019-05-13,15:25:00,DRY,1.45,16.55,25.5,773.00,963.5
2019-05-13,15:30:00,DRY,1.93,16.90,24.7,773.00,950.8
2019-05-13,15:35:00,DRY,1.45,16.85,27.0,773.00,938.7
2019-05-13,15:40:00,DRY,1.87,16.90,22.7,773.00,923.9
2019-05-13,15:45:00,DRY,1.85,16.50,23.0,773.00,912.5
2019-05-13,15:50:00,DRY,1.87,16.33,23.3,773.00,898.9
2019-05-13,15:55:00,DRY,1.30,16.30,23.0,773.00,887.2
2019-05-13,16:00:00,DRY,1.40,16.73,22.0,773.00,874.6
2019-05-13,16:05:00,DRY,2.45,16.80,22.0,773.00,855.1
2019-05-13,16:10:00,DRY,2.27,16.73,23.0,773.00,840.7
2019-05-13,16:15:00,DRY,2.10,16.40,23.0,773.00,824.8
2019-05-13,16:20:00,DRY,1.43,16.77,23.0,773.00,809.3
2019-05-13,16:25:00,DRY,1.80,16.70,22.5,773.00,790.5
2019-05-13,16:30:00,,,,,,
2019-05-13,16:35:00,,,,,,
2019-05-13,16:40:00,,,,,,
2019-05-13,16:45:00,,,,,,
2019-05-13,16:50:00,,,,,,
2019-05-13,16:55:00,,,,,,
2019-05-13,17:00:00,,,,,,
2019-05-13,17:05:00,,,,,,
2019-05-13,17:10:00,DRY,2.30,15.45,22.5,773.00,630.6
2019-05-13,17:15:00,DRY,3.30,16.00,23.0,773.00,619.1
2019-05-13,17:20:00,DRY,1.60,16.65,21.5,773.00,583.5
2019-05-13,17:25:00,DRY,1.60,16.50,21.5,773.00,559.3
2019-05-13,17:30:00,DRY,1.80,16.77,21.7,772.33,533.7
2019-05-13,17:35:00,DRY,1.55,16.90,22.5,773.00,499.6
2019-05-13,17:40:00,DRY,1.77,16.87,30.0,772.67,469.1
2019-05-13,17:45:00,DRY,0.70,16.60,29.5,772.50,461.9
2019-05-13,17:50:00,DRY,1.70,16.23,24.0,772.33,432.7
2019-05-13,17:55:00,DRY,1.50,16.05,25.5,773.00,402.6
2019-05-13,18:00:00,DRY,1.00,15.40,41.3,772.67,390.5
2019-05-13,18:05:00,DRY,1.80,15.55,41.5,772.50,387.7
2019-05-13,18:10:00,DRY,0.77,15.83,36.0,772.00,371.4
2019-05-13,18:15:00,DRY,0.75,15.95,38.5,772.00,341.3
2019-05-13,18:20:00,DRY,1.10,16.17,29.7,772.00,312.0
2019-05-13,18:25:00,DRY,1.45,15.95,28.5,772.00,306.4
2019-05-13,18:30:00,DRY,0.97,16.13,29.0,772.00,283.7
2019-05-13,18:35:00,DRY,0.90,16.20,35.5,772.50,262.6
2019-05-13,18:40:00,DRY,2.10,15.50,37.3,772.00,250.5
2019-05-13,18:45:00,DRY,1.75,15.35,36.5,772.00,208.8
2019-05-13,18:50:00,DRY,1.10,15.43,34.0,772.00,187.8
2019-05-13,18:55:00,DRY,1.10,15.60,32.0,772.00,165.8
2019-05-13,19:00:00,DRY,1.23,15.73,29.0,772.33,147.7
2019-05-13,19:05:00,DRY,1.70,15.65,28.5,772.50,124.0
2019-05-13,19:10:00,DRY,1.70,15.47,29.7,772.00,125.0
2019-05-13,19:15:00,DRY,1.35,15.25,28.5,772.50,100.1
2019-05-13,19:20:00,DRY,1.23,15.10,28.7,773.00,87.5
2019-05-13,19:25:00,DRY,0.55,15.05,27.5,773.00,77.0
2019-05-13,19:30:00,DRY,0.87,14.47,31.7,773.00,50.4
2019-05-13,19:35:00,DRY,1.35,14.35,28.0,773.00,39.5
2019-05-13,19:40:00,DRY,0.63,14.30,30.3,773.00,28.6
2019-05-13,19:45:00,DRY,0.35,14.30,32.5,773.00,20.6
2019-05-13,19:50:00,DRY,0.77,13.87,35.7,773.00,11.2
2019-05-13,19:55:00,DRY,0.75,13.70,37.5,773.00,7.0
2019-05-13,20:00:00,DRY,1.07,13.37,38.0,773.00,5.0
2019-05-13,20:05:00,DRY,1.80,13.35,35.5,773.00,3.1
2019-05-13,20:10:00,DRY,1.67,13.33,36.7,773.00,1.9
2019-05-13,20:15:00,DRY,0.80,13.35,34.0,773.00,2.1
2019-05-13,20:20:00,DRY,1.87,13.23,31.7,773.00,1.3
2019-05-13,20:25:00,DRY,1.50,13.20,29.0,773.00,1.1
2019-05-13,20:30:00,DRY,2.23,13.27,24.7,773.00,1.0
2019-05-13,20:35:00,DRY,1.95,13.50,26.0,773.00,0.9
2019-05-13,20:40:00,DRY,2.33,13.47,24.7,773.00,1.3
2019-05-13,20:45:00,DRY,2.55,13.25,33.0,773.00,0.8
2019-05-13,20:50:00,DRY,2.43,13.00,34.7,773.00,0.6
2019-05-13,20:55:00,DRY,2.35,12.85,35.5,773.00,1.1
2019-05-13,21:00:00,DRY,3.07,12.80,32.7,773.00,1.7
2019-05-13,21:05:00,DRY,2.30,12.80,28.0,773.00,0.9
2019-05-13,21:10:00,DRY,2.73,12.83,26.0,773.00,2.2
2019-05-13,21:15:00,DRY,2.55,12.80,25.5,773.00,1.9
2019-05-13,21:20:00,DRY,2.67,12.80,24.0,773.00,1.5
2019-05-13,21:25:00,DRY,2.65,13.00,20.5,773.00,1.4
2019-05-13,21:30:00,DRY,3.07,13.00,19.7,773.00,1.2
2019-05-13,21:35:00,DRY,2.95,13.30,15.5,773.00,1.7
2019-05-13,21:40:00,DRY,2.67,13.43,15.3,773.00,0.6
2019-05-13,21:45:00,DRY,2.10,13.45,14.5,773.00,0.8
2019-05-13,21:50:00,DRY,2.47,13.47,14.0,773.00,2.1
2019-05-13,21:55:00,DRY,1.95,13.55,12.0,773.00,1.2
2019-05-13,22:00:00,DRY,1.83,13.57,11.0,773.00,1.5
2019-05-13,22:05:00,DRY,1.70,13.35,14.5,773.00,1.9
2019-05-13,22:10:00,DRY,2.57,13.37,12.3,773.00,1.4
2019-05-13,22:15:00,DRY,1.90,13.25,11.0,773.00,1.8
2019-05-13,22:20:00,DRY,2.60,13.37,11.3,773.00,0.8
2019-05-13,22:25:00,DRY,2.20,13.25,13.5,773.00,2.0
2019-05-13,22:30:00,DRY,2.30,12.83,18.7,773.00,2.2
2019-05-13,22:35:00,DRY,2.05,12.65,20.5,773.00,1.4
2019-05-13,22:40:00,DRY,1.90,12.57,22.0,773.00,1.5
2019-05-13,22:45:00,DRY,1.70,12.50,23.0,773.00,0.4
2019-05-13,22:50:00,DRY,2.57,12.47,22.7,773.00,1.2
2019-05-13,22:55:00,DRY,2.75,12.55,20.5,773.00,1.6
2019-05-13,23:00:00,DRY,2.77,12.87,18.0,773.00,0.8
2019-05-13,23:05:00,DRY,3.25,12.95,15.5,773.00,0.9
2019-05-13,23:10:00,DRY,2.33,13.37,12.0,773.00,0.8
2019-05-13,23:15:00,DRY,1.75,13.50,10.5,773.00,0.8
2019-05-13,23:20:00,DRY,2.40,13.47,11.7,773.00,1.2
2019-05-13,23:25:00,DRY,0.95,13.40,12.0,773.00,1.7
2019-05-13,23:30:00,DRY,1.03,13.20,13.7,773.00,0.4
2019-05-13,23:35:00,DRY,1.30,13.00,14.5,773.00,1.9
2019-05-13,23:40:00,DRY,0.87,12.73,15.0,773.00,1.5
2019-05-13,23:45:00,DRY,1.00,12.65,14.5,773.00,1.3
2019-05-13,23:50:00,DRY,0.80,12.77,14.3,773.00,1.4
2019-05-13,23:55:00,DRY,0.90,12.65,14.5,773.00,0.8
2019-05-14,00:00:00,DRY,1.00,12.63,14.7,773.00,1.1
2019-05-14,00:05:00,DRY,1.20,12.50,14.0,773.00,0.8
2019-05-14,00:10:00,DRY,0.53,12.40,14.7,773.00,0.9
2019-05-14,00:15:00,DRY,1.15,12.40,14.5,773.00,0.2
2019-05-14,00:20:00,DRY,2.07,12.47,15.3,773.00,1.2
2019-05-14,00:25:00,DRY,2.90,12.35,16.5,773.00,1.1
2019-05-14,00:30:00,DRY,3.13,12.63,15.0,773.00,1.1
2019-05-14,00:35:00,DRY,1.95,13.05,12.5,773.00,0.9
2019-05-14,00:40:00,DRY,3.40,12.90,13.3,773.00,1.1
2019-05-14,00:45:00,DRY,2.50,13.00,12.5,773.00,1.4
2019-05-14,00:50:00,DRY,2.10,12.83,13.3,773.00,0.5
2019-05-14,00:55:00,DRY,1.80,12.90,13.5,773.00,2.0
2019-05-14,01:00:00,DRY,3.40,12.90,12.3,773.00,1.0
2019-05-14,01:05:00,DRY,2.25,12.85,13.5,773.00,1.6
2019-05-14,01:10:00,DRY,3.00,12.93,12.7,772.67,2.0
2019-05-14,01:15:00,DRY,3.15,13.10,11.0,772.00,1.2
2019-05-14,01:20:00,DRY,2.47,13.23,10.7,772.00,1.3
2019-05-14,01:25:00,DRY,1.90,13.10,10.5,772.00,1.8
2019-05-14,01:30:00,DRY,2.57,13.13,10.0,772.00,1.3
2019-05-14,01:35:00,DRY,3.35,13.10,11.0,772.00,0.7
2019-05-14,01:40:00,DRY,1.87,12.90,11.3,772.00,0.8
2019-05-14,01:45:00,DRY,2.05,12.90,12.0,772.00,2.1
2019-05-14,01:50:00,DRY,3.30,12.87,12.0,772.00,1.2
2019-05-14,01:55:00,DRY,1.50,12.80,11.5,772.00,1.3
2019-05-14,02:00:00,DRY,1.77,12.90,11.7,772.00,1.1
2019-05-14,02:05:00,DRY,2.10,12.85,11.0,772.00,0.7
2019-05-14,02:10:00,DRY,2.60,12.83,11.3,772.00,1.1
2019-05-14,02:15:00,DRY,2.60,12.75,12.0,772.00,1.3
2019-05-14,02:20:00,DRY,1.97,12.70,12.0,772.00,0.8
2019-05-14,02:25:00,DRY,1.90,12.65,11.5,772.00,1.2
2019-05-14,02:30:00,DRY,1.63,12.77,11.0,772.00,1.4
2019-05-14,02:35:00,DRY,2.45,12.70,11.0,772.00,1.4
2019-05-14,02:40:00,DRY,2.93,12.60,11.3,772.00,1.1
2019-05-14,02:45:00,DRY,3.45,12.60,11.5,772.00,0.7
2019-05-14,02:50:00,DRY,3.17,12.53,11.7,772.00,1.3
2019-05-14,02:55:00,DRY,4.80,12.65,11.0,772.00,1.2
2019-05-14,03:00:00,DRY,4.13,12.67,11.3,772.00,1.2
2019-05-14,03:05:00,DRY,3.20,12.65,11.0,772.00,1.6
2019-05-14,03:10:00,DRY,3.33,12.60,11.7,772.00,0.8
2019-05-14,03:15:00,DRY,2.95,12.55,11.5,772.00,1.4
2019-05-14,03:20:00,DRY,4.23,12.40,12.0,772.00,1.2
2019-05-14,03:25:00,DRY,4.40,12.35,12.0,771.50,0.9
2019-05-14,03:30:00,DRY,2.97,12.37,12.3,772.00,1.5
2019-05-14,03:35:00,DRY,2.35,12.25,12.5,771.50,0.7
2019-05-14,03:40:00,DRY,2.63,12.27,12.7,772.00,1.2
2019-05-14,03:45:00,DRY,2.40,12.30,12.0,772.00,1.2
2019-05-14,03:50:00,DRY,2.10,12.35,12.0,772.00,1.3
2019-05-14,03:55:00,DRY,0.95,12.20,12.5,772.00,1.9
2019-05-14,04:00:00,DRY,1.83,12.13,12.3,772.00,1.0
2019-05-14,04:05:00,DRY,1.05,11.95,13.5,772.00,1.9
2019-05-14,04:10:00,DRY,1.90,11.83,13.0,772.00,0.8
2019-05-14,04:15:00,DRY,1.25,11.90,13.0,772.00,1.9
2019-05-14,04:20:00,DRY,0.73,11.60,14.0,772.00,1.4
2019-05-14,04:25:00,DRY,0.90,11.50,14.5,772.00,0.6
2019-05-14,04:30:00,DRY,0.60,11.43,15.0,772.00,1.3
2019-05-14,04:35:00,DRY,0.55,11.45,15.0,772.00,1.6
2019-05-14,04:40:00,DRY,0.73,11.33,15.7,772.00,1.7
2019-05-14,04:45:00,DRY,0.45,11.10,16.5,772.00,1.2
2019-05-14,04:50:00,DRY,0.43,11.23,16.0,772.00,1.2
2019-05-14,04:55:00,DRY,0.35,11.30,15.0,772.00,1.2
2019-05-14,05:00:00,DRY,0.77,11.43,14.3,772.00,1.7
2019-05-14,05:05:00,DRY,1.05,11.50,14.5,772.00,1.1
2019-05-14,05:10:00,DRY,1.10,11.40,14.0,772.00,0.7
2019-05-14,05:15:00,DRY,1.85,11.45,14.0,772.00,2.3
2019-05-14,05:20:00,DRY,2.07,11.57,14.0,772.00,1.6
2019-05-14,05:25:00,DRY,2.10,11.55,14.5,772.00,1.6
2019-05-14,05:30:00,DRY,2.30,11.53,15.0,772.00,1.3
2019-05-14,05:35:00,DRY,2.45,11.45,15.0,772.00,0.8
2019-05-14,05:40:00,DRY,2.30,11.57,15.0,772.00,1.2
2019-05-14,05:45:00,DRY,2.45,11.60,15.0,772.00,0.8
2019-05-14,05:50:00,DRY,2.00,11.47,15.0,772.00,0.6
2019-05-14,05:55:00,DRY,2.00,11.45,15.0,772.00,1.6
2019-05-14,06:00:00,DRY,1.87,11.57,15.0,772.00,1.9
2019-05-14,06:05:00,DRY,1.70,11.35,15.0,772.00,1.8
2019-05-14,06:10:00,DRY,2.13,11.50,14.7,772.00,2.9
2019-05-14,06:15:00,DRY,2.40,11.40,15.0,772.00,5.8
2019-05-14,06:20:00,DRY,1.57,11.20,15.0,772.00,7.7
2019-05-14,06:25:00,DRY,1.35,11.20,15.0,772.00,14.1
2019-05-14,06:30:00,DRY,2.03,11.57,14.7,772.00,25.0
2019-05-14,06:35:00,DRY,1.25,11.50,15.0,772.00,41.8
2019-05-14,06:40:00,DRY,1.67,11.70,14.3,772.00,62.1
2019-05-14,06:45:00,DRY,1.85,12.00,14.0,772.00,82.4
2019-05-14,06:50:00,DRY,1.77,12.13,12.7,772.00,95.0
2019-05-14,06:55:00,DRY,2.35,12.05,13.5,772.00,114.1
2019-05-14,07:00:00,DRY,1.37,12.20,13.7,772.00,118.5
2019-05-14,07:05:00,DRY,1.30,12.15,12.5,772.00,113.9
2019-05-14,07:10:00,DRY,1.63,12.30,13.0,772.00,168.7
2019-05-14,07:15:00,DRY,1.70,12.65,12.5,772.00,207.8
2019-05-14,07:20:00,DRY,2.00,12.90,13.0,772.00,231.0
2019-05-14,07:25:00,DRY,1.80,12.90,12.5,772.00,251.2
2019-05-14,07:30:00,DRY,1.77,12.87,11.7,772.00,274.0
2019-05-14,07:35:00,DRY,2.15,13.05,12.0,772.00,295.2
2019-05-14,07:40:00,DRY,1.73,13.23,11.7,772.00,316.9
2019-05-14,07:45:00,DRY,1.85,13.45,11.5,772.00,338.4
2019-05-14,07:50:00,DRY,3.10,13.00,11.3,772.00,361.0
2019-05-14,07:55:00,DRY,2.00,12.65,11.5,772.00,382.0
2019-05-14,08:00:00,DRY,1.60,13.00,11.3,772.00,403.4
2019-05-14,08:05:00,DRY,1.85,13.30,11.5,772.00,426.2
2019-05-14,08:10:00,DRY,2.23,13.40,10.7,772.00,445.8
2019-05-14,08:15:00,DRY,0.60,13.70,11.0,772.00,467.2
2019-05-14,08:20:00,DRY,1.53,13.97,11.3,772.00,487.6
2019-05-14,08:25:00,DRY,0.95,13.70,13.0,772.00,509.1
2019-05-14,08:30:00,DRY,1.13,13.67,12.0,772.00,529.1
2019-05-14,08:35:00,DRY,1.85,14.00,12.5,772.00,549.6
2019-05-14,08:40:00,DRY,1.30,14.30,12.3,772.00,571.6
2019-05-14,08:45:00,DRY,2.30,14.25,11.0,772.00,591.1
2019-05-14,08:50:00,DRY,2.17,14.23,11.7,772.00,611.1
2019-05-14,08:55:00,DRY,1.70,14.35,10.5,772.00,629.5
2019-05-14,09:00:00,DRY,2.40,14.40,12.0,772.00,649.5
2019-05-14,09:05:00,DRY,2.25,14.35,11.5,772.00,669.2
2019-05-14,09:10:00,DRY,2.50,14.47,11.7,772.00,688.9
2019-05-14,09:15:00,DRY,1.90,14.55,12.5,772.00,706.1
2019-05-14,09:20:00,DRY,3.07,14.47,12.3,772.00,723.7
2019-05-14,09:25:00,DRY,2.80,13.95,12.5,772.00,741.8
2019-05-14,09:30:00,DRY,2.80,13.83,12.3,772.00,759.1
2019-05-14,09:35:00,DRY,1.80,14.40,12.5,772.00,775.5
2019-05-14,09:40:00,DRY,3.03,14.63,12.3,772.00,793.9
2019-05-14,09:45:00,DRY,1.70,14.80,12.5,772.00,808.9
2019-05-14,09:50:00,DRY,1.60,14.63,12.3,772.00,827.0
2019-05-14,09:55:00,DRY,1.55,14.85,11.5,772.00,843.2
2019-05-14,10:00:00,DRY,1.50,15.17,12.0,772.00,860.2
2019-05-14,10:05:00,DRY,2.15,15.45,12.5,772.00,874.0
2019-05-14,10:10:00,DRY,2.73,14.23,18.3,772.00,886.9
2019-05-14,10:15:00,DRY,2.00,14.60,17.5,772.00,902.4
2019-05-14,10:20:00,DRY,2.53,15.13,14.7,772.00,918.1
2019-05-14,10:25:00,DRY,1.55,15.35,13.5,772.00,931.1
2019-05-14,10:30:00,DRY,1.90,15.53,13.7,772.00,944.4
2019-05-14,10:35:00,DRY,2.95,15.50,16.5,772.00,958.5
2019-05-14,10:40:00,DRY,1.53,15.13,18.0,772.00,971.9
2019-05-14,10:45:00,DRY,3.20,15.50,21.5,772.00,982.6
2019-05-14,10:50:00,DRY,0.90,15.77,15.7,772.00,999.6
2019-05-14,10:55:00,DRY,2.15,15.75,20.0,772.00,1012.4
2019-05-14,11:00:00,DRY,1.40,16.17,17.0,772.00,1008.3
2019-05-14,11:05:00,DRY,1.30,16.35,17.5,772.00,1033.2
2019-05-14,11:10:00,DRY,1.97,16.10,20.3,772.00,1042.3
2019-05-14,11:15:00,DRY,1.55,16.30,14.0,772.00,1052.5
2019-05-14,11:20:00,DRY,1.50,16.20,19.0,772.00,1059.0
2019-05-14,11:25:00,DRY,2.30,16.00,21.5,772.00,1066.0
2019-05-14,11:30:00,DRY,1.17,15.73,22.0,772.00,1073.6
2019-05-14,11:35:00,DRY,1.65,15.30,22.5,772.00,1083.5
2019-05-14,11:40:00,DRY,1.77,15.77,24.7,772.00,1090.4
2019-05-14,11:45:00,DRY,2.50,15.75,24.0,772.00,1095.8
2019-05-14,11:50:00,DRY,2.17,15.73,23.0,772.00,1102.1
2019-05-14,11:55:00,DRY,1.00,16.15,20.0,772.00,1108.2
2019-05-14,12:00:00,DRY,1.93,16.67,18.3,772.00,1113.9
2019-05-14,12:05:00,DRY,2.15,16.75,23.0,772.00,1118.2
2019-05-14,12:10:00,DRY,2.83,16.80,22.3,772.00,1124.1
2019-05-14,12:15:00,DRY,2.80,16.20,24.5,772.00,1125.2
2019-05-14,12:20:00,DRY,1.97,16.40,22.0,772.00,1130.0
2019-05-14,12:25:00,DRY,1.60,16.10,23.0,772.00,1130.8
2019-05-14,12:30:00,DRY,2.27,15.87,24.7,772.00,1134.1
2019-05-14,12:35:00,DRY,0.95,16.05,25.5,772.00,1136.8
2019-05-14,12:40:00,DRY,0.97,16.13,24.0,772.00,1140.9
2019-05-14,12:45:00,DRY,2.25,16.00,23.5,772.00,1140.0
2019-05-14,12:50:00,DRY,1.63,15.70,24.0,772.00,1142.9
2019-05-14,12:55:00,DRY,1.25,15.95,25.0,772.00,1144.1
2019-05-14,13:00:00,DRY,1.57,16.27,22.3,772.00,1143.5
2019-05-14,13:05:00,DRY,1.85,16.00,26.5,772.00,1144.0
2019-05-14,13:10:00,DRY,1.13,16.20,25.0,772.00,1141.9
2019-05-14,13:15:00,DRY,1.25,16.45,29.0,772.00,1139.2
2019-05-14,13:20:00,DRY,2.03,15.43,31.0,772.00,1141.5
2019-05-14,13:25:00,DRY,2.85,15.35,28.5,772.00,1142.0
2019-05-14,13:30:00,DRY,1.90,16.00,27.0,772.00,1133.6
2019-05-14,13:35:00,DRY,1.30,16.40,36.0,772.00,1135.2
2019-05-14,13:40:00,DRY,1.63,15.47,38.3,772.00,1133.5
2019-05-14,13:45:00,DRY,2.50,15.15,37.5,772.00,1127.0
2019-05-14,13:50:00,DRY,1.73,15.97,32.3,772.00,1127.7
2019-05-14,13:55:00,DRY,1.60,15.65,38.5,772.00,1122.3
2019-05-14,14:00:00,DRY,2.87,15.50,36.3,772.00,1117.5
2019-05-14,14:05:00,DRY,2.05,15.60,37.0,772.00,1113.2
2019-05-14,14:10:00,DRY,1.77,15.67,37.3,772.00,1109.4
2019-05-14,14:15:00,DRY,2.30,15.95,38.0,772.00,1105.0
2019-05-14,14:20:00,DRY,1.00,16.20,38.7,772.00,1097.0
2019-05-14,14:25:00,DRY,2.25,16.30,34.5,772.00,1091.0
2019-05-14,14:30:00,DRY,0.93,15.93,39.0,772.00,1078.0
2019-05-14,14:35:00,DRY,2.35,16.65,34.0,772.00,1077.2
2019-05-14,14:40:00,DRY,2.20,16.27,37.3,772.00,1064.5
2019-05-14,14:45:00,DRY,2.45,16.35,37.5,772.00,1059.2
2019-05-14,14:50:00,DRY,2.27,16.73,38.0,772.00,1047.0
2019-05-14,14:55:00,DRY,1.50,15.35,40.5,772.00,1033.7
2019-05-14,15:00:00,DRY,2.03,15.60,40.0,772.00,1029.0
2019-05-14,15:05:00,DRY,2.35,15.65,41.5,772.00,1019.1
2019-05-14,15:10:00,DRY,2.60,15.60,41.7,772.00,1007.6
2019-05-14,15:15:00,DRY,1.60,15.55,42.0,772.00,995.0
2019-05-14,15:20:00,DRY,1.97,16.03,42.3,772.00,989.0